Weather History for KBKE - March, 2014

Change the Weather History Date:

Thursday, March 6, 2014

  Actual Average Record
Temperature  
Mean Temperature 44 °F 35 °F  
Max Temperature 56 °F 47 °F 63 °F (2001)
Min Temperature 32 °F 23 °F 5 °F (1955)
Degree Days  
Heating Degree Days 21 30  
Month to date heating degree days 144 185  
Since 1 July heating degree days 5670 5705  
Cooling Degree Days 0 0  
Month to date cooling degree days 0 0  
Year to date cooling degree days 0 0  
Moisture  
Dew Point 33 °F    
Average Humidity 61    
Maximum Humidity 86    
Minimum Humidity 35    
Precipitation  
Precipitation 0.03 in 0.03 in 0.21 in (2000)
Month to date precipitation 0.39 0.15  
Year to date precipitation 2.08 1.53  
Sea Level Pressure  
Sea Level Pressure 29.85 in    
Wind  
Wind Speed 10 mph (South)    
Max Wind Speed 29 mph    
Max Gust Speed 36 mph    
Visibility 10 miles    
Events Rain    
T = Trace of Precipitation, MM = Missing Value Source: NWS Daily Summary

Daily Weather History Graph

Daily Weather History Graph

Search for Another Location

Airport or City:

Trip Planner

Search our weather history database for the weather conditions in past years. The results will help you decide how hot, cold, wet, or windy it might be!

Date:

Astronomy

Mar. 06, 2014 Rise Set
Actual Time 6:19 AM PST 5:45 PM PST
Civil Twilight 5:50 AM PST 6:14 PM PST
Nautical Twilight 5:16 AM PST 6:48 PM PST
Astronomical Twilight 4:42 AM PST 7:23 PM PST
Moon 9:16 AM PST (3/6) No Moon Set
Length of Visible Light 12h 24m
Length of Day
11h 25m
Waxing Crescent, 33% of the Moon is Illuminated
Mar 6
Waxing Crescent
Mar 8
First Quarter
Mar 16
Full
Mar 23
Last Quarter
Mar 30
New

Hourly Weather History & Observations

Time (PST) Temp. Windchill Dew Point Humidity Pressure Visibility Wind Dir Wind Speed Gust Speed Precip Events Conditions
12:53 AM 48.9 °F - 45.0 °F 86% 29.67 in 10.0 mi South 11.5 mph - 0.02 in Rain Light Rain
1:53 AM 48.0 °F - 43.0 °F 83% 29.70 in 10.0 mi SSW 8.1 mph 17.3 mph 0.00 in   Scattered Clouds
2:53 AM 48.9 °F - 35.1 °F 59% 29.70 in 10.0 mi SW 18.4 mph 29.9 mph N/A   Clear
3:53 AM 46.9 °F - 34.0 °F 61% 29.74 in 10.0 mi SSW 8.1 mph - N/A   Clear
4:53 AM 48.0 °F - 33.1 °F 56% 29.74 in 10.0 mi South 17.3 mph 27.6 mph N/A   Clear
5:53 AM 45.0 °F 42.6 °F 33.1 °F 63% 29.78 in 10.0 mi ENE 4.6 mph - N/A   Clear
6:53 AM 48.0 °F - 32.0 °F 54% 29.80 in 10.0 mi WSW 12.7 mph 21.9 mph N/A   Overcast
7:53 AM 48.0 °F - 32.0 °F 54% 29.82 in 10.0 mi South 11.5 mph - N/A   Mostly Cloudy
8:53 AM 50.0 °F - 30.9 °F 48% 29.82 in 10.0 mi South 10.4 mph - N/A   Clear
9:53 AM 50.0 °F - 28.9 °F 44% 29.82 in 10.0 mi ESE 8.1 mph 20.7 mph N/A   Overcast
10:53 AM 51.1 °F - 28.9 °F 43% 29.82 in 10.0 mi SSE 11.5 mph 16.1 mph 0.00 in Rain Light Rain
11:53 AM 53.1 °F - 28.9 °F 40% 29.79 in 10.0 mi South 16.1 mph 24.2 mph 0.00 in   Partly Cloudy
12:53 PM 50.0 °F - 33.1 °F 52% 29.80 in 10.0 mi South 17.3 mph 27.6 mph 0.00 in Rain Light Rain
1:53 PM 53.1 °F - 28.9 °F 40% 29.78 in 10.0 mi SSW 16.1 mph 34.5 mph 0.00 in   Partly Cloudy
2:53 PM 53.1 °F - 27.0 °F 37% 29.79 in 10.0 mi South 12.7 mph 24.2 mph N/A   Mostly Cloudy
3:53 PM 48.0 °F - 35.1 °F 61% 29.86 in 10.0 mi WNW 12.7 mph 26.5 mph 0.00 in Rain Light Rain
4:53 PM 48.0 °F - 34.0 °F 58% 29.88 in 10.0 mi Calm Calm - 0.00 in   Overcast
5:53 PM 44.1 °F 39.5 °F 35.1 °F 71% 29.93 in 10.0 mi NNW 8.1 mph - 0.01 in   Overcast
6:53 PM 42.1 °F 36.6 °F 33.1 °F 70% 29.97 in 10.0 mi NW 9.2 mph - N/A   Scattered Clouds
7:53 PM 39.0 °F 34.8 °F 32.0 °F 76% 29.99 in 10.0 mi SE 5.8 mph - N/A   Clear
8:53 PM 37.9 °F 33.5 °F 30.0 °F 73% 30.03 in 10.0 mi ESE 5.8 mph - N/A   Partly Cloudy
9:53 PM 34.0 °F 28.0 °F 28.9 °F 82% 30.06 in 10.0 mi ESE 6.9 mph - N/A   Mostly Cloudy
10:53 PM 36.0 °F 32.1 °F 30.0 °F 79% 30.07 in 10.0 mi East 4.6 mph - N/A   Overcast
11:53 PM 37.9 °F 32.7 °F 30.9 °F 76% 30.08 in 10.0 mi East 6.9 mph - N/A   Overcast